sat.trackr.live / text

‹ back to catalog

STARLINK-35845

NORAD 66366 · 2025-254U

PAYLOAD ACTIVE UNKNOWN

§ Identity

Operator
Country
US
Launch date
2025-11-06
Launch site
AFWTR
Launch vehicle
Mass (kg)
RCS (m²)

Purposes: comms

External: N2YO · Heavens-Above · Gunter

§ Orbital elements

Epoch: 2026-09-20T22:04:23.359584Z

Period
94.01 min
Inclination
53.1597°
Eccentricity
0.0001231
Mean motion
15.31716598 rev/d
Perigee alt
469.8 km
Apogee alt
471.5 km
Semi-major
6,848.8 km
B*
5.1959e-4
RAAN
44.3956°
Arg perigee
81.2355°
Mean anomaly
278.8786°
Rev number
4,888

§ Raw data

STARLINK-358451 66366U 25254U   26263.91971481  .00015801  00000+0  51959-3 0  99902 66366  53.1597  44.3956 0001231  81.2355 278.8786 15.31716598 48881

JSON: /api/v1/satellites/66366 · /tle

For live sub-satellite position, see the globe view (requires WebGL).

§ Visibility from observer

Set your observer location to see the next 7 days of passes ≥ 10°. The values pass through the URL so the page stays shareable.

No JS? Fill the form by hand. The geolocation button needs JavaScript.